This is the latest recevied weather packets stored in our database for station/object K6LOT-13. If no packets are shown the sender has not sent any weather packets the latest 1 day(s).
| Time | Temp. | Humidity | Pressure | Rain* | Wind** | Luminosity | Snow |
|---|---|---|---|---|---|---|---|
| 1778006952 | 19.44° C | 56% | 1016.3 hPa | 0 mm | 0 m/s | - | - |
| 1778006646 | 20° C | 56% | 1016.2 hPa | 0 mm | 0 m/s | - | - |
| 1778006336 | 20° C | 56% | 1016.3 hPa | 0 mm | 0 m/s | - | - |
| 1778006030 | 20° C | 56% | 1016.3 hPa | 0 mm | 0 m/s | - | - |
| 1778005749 | 19.44° C | 58% | 1016.3 hPa | 0 mm | 0 m/s | - | - |
| 1778005413 | 19.44° C | 58% | 1016.3 hPa | 0 mm | 0 m/s | - | - |
| 1778005137 | 19.44° C | 58% | 1016.2 hPa | 0 mm | 0 m/s | - | - |
| 1778004801 | 18.89° C | 59% | 1016.2 hPa | 0 mm | 0 m/s | - | - |
| 1778004495 | 18.89° C | 59% | 1016.2 hPa | 0 mm | 0 m/s | - | - |
| 1778004188 | 18.89° C | 60% | 1016.2 hPa | 0 mm | 0 m/s | - | - |
| 1778003878 | 18.89° C | 59% | 1016.2 hPa | 0 mm | 0 m/s | - | - |
| 1778003550 | 18.89° C | 59% | 1016.1 hPa | 0 mm | 0 m/s | - | - |
| 1778003270 | 18.89° C | 59% | 1016.1 hPa | 0 mm | 0 m/s | - | - |
| 1778002627 | 18.89° C | 59% | 1015.9 hPa | 0 mm | 0 m/s | - | - |
| 1778002321 | 18.89° C | 59% | 1015.8 hPa | 0 mm | 0 m/s | - | - |
| 1778002015 | 18.89° C | 59% | 1015.8 hPa | 0 mm | 0 m/s | - | - |
| 1778001706 | 18.89° C | 59% | 1015.8 hPa | 0 mm | 0 m/s | - | - |
| 1778001395 | 18.89° C | 59% | 1015.8 hPa | 0 mm | 0 m/s | - | - |
| 1778001079 | 19.44° C | 59% | 1015.7 hPa | 0 mm | 0 m/s | - | - |
| 1778000774 | 18.89° C | 59% | 1015.7 hPa | 0 mm | 0 m/s | - | - |
| 1778000433 | 18.89° C | 61% | 1015.8 hPa | 0 mm | 0 m/s | - | - |
| 1778000124 | 18.33° C | 61% | 1015.7 hPa | 0 mm | 0 m/s | - | - |
| 1777999806 | 18.33° C | 61% | 1015.6 hPa | 0 mm | 0 m/s | - | - |
| 1777999484 | 18.33° C | 64% | 1015.7 hPa | 0 mm | 0 m/s | - | - |
| 1777998946 | 17.22° C | 64% | 1015.7 hPa | 0 mm | 0 m/s | - | - |
* Rain latest hour (hover to see other rain measurements)
** Current wind speed in m/s (hover to see current wind gust speed)